Hattiesburg, MS

1:59 PM CDT on March 26, 2017 (GMT -0500)
Chain Municipal

Weather History for KHBG - April, 2013

Change the Weather History Date:

Tuesday, April 23, 2013

  Actual Average Record
Temperature  
Mean Temperature 70 °F 67 °F  
Max Temperature 80 °F 80 °F 90 °F (2008)
Min Temperature 59 °F 55 °F 41 °F (1959)
Degree Days  
Heating Degree Days 0 1  
Month to date heating degree days 80 76  
Since 1 July heating degree days 1822 1971  
Cooling Degree Days 5 4  
Month to date cooling degree days 69 61  
Year to date cooling degree days 106 109  
Growing Degree Days 20 (Base 50)    
Moisture  
Dew Point 60 °F    
Average Humidity 74    
Maximum Humidity 97    
Minimum Humidity 51    
Precipitation  
Precipitation 0.00 in 0.14 in 1.92 in (1994)
Month to date precipitation 6.33 3.99  
Year to date precipitation 26.91 20.62  
Sea Level Pressure  
Sea Level Pressure 30.07 in    
Wind  
Wind Speed 7 mph (SSE)    
Max Wind Speed 16 mph    
Max Gust Speed 20 mph    
Visibility 7 miles    
Events Fog    
T = Trace of Precipitation, MM = Missing Value Source: NWS Daily Summary

Daily Weather History Graph

Daily Weather History Graph

Search for Another Location

Airport or City:

Trip Planner

Search our weather history database for the weather conditions in past years. The results will help you decide how hot, cold, wet, or windy it might be!

Date:

Astronomy

Apr. 23, 2013 Rise Set
Actual Time 6:19 AM CDT 7:31 PM CDT
Civil Twilight 5:54 AM CDT 7:56 PM CDT
Nautical Twilight 5:24 AM CDT 8:26 PM CDT
Astronomical Twilight 4:53 AM CDT 8:57 PM CDT
Moon 5:32 PM CDT (4/23) 4:39 AM CDT (4/23)
Length of Visible Light 14h 01m
Length of Day
13h 11m
Waxing Gibbous, 94% of the Moon is Illuminated
Apr 23
Waxing Gibbous
Apr 25
Full
May 2
Last Quarter
May 9
New
May 17
First Quarter

Hourly Weather History & Observations

Time (CDT) Temp. Heat Index Dew Point Humidity Pressure Visibility Wind Dir Wind Speed Gust Speed Precip Events Conditions
12:53 AM 63.0 °F - 60.1 °F 90% 30.09 in 10.0 mi SE 3.5 mph - N/A   Clear
1:53 AM 62.1 °F - 60.1 °F 93% 30.08 in 7.0 mi Calm Calm - N/A   Clear
2:08 AM 62.6 °F - 60.8 °F 94% 30.09 in 6.0 mi Calm Calm - N/A   Partly Cloudy
2:53 AM 60.1 °F - 57.9 °F 93% 30.07 in 6.0 mi Calm Calm - N/A   Clear
3:27 AM 59.0 °F - 57.2 °F 94% 30.07 in 5.0 mi Calm Calm - N/A   Mostly Cloudy
3:53 AM 61.0 °F - 59.0 °F 93% 30.07 in 6.0 mi Calm Calm - N/A   Overcast
4:00 AM 60.8 °F - 59.0 °F 94% 30.07 in 6.0 mi Calm Calm - N/A   Overcast
4:10 AM 60.8 °F - 59.0 °F 94% 30.08 in 6.0 mi Calm Calm - N/A   Overcast
5:01 AM 59.0 °F - 57.2 °F 94% 30.08 in 1.8 mi SSE 3.5 mph - N/A   Overcast
5:15 AM 59.0 °F - 57.2 °F 94% 30.08 in 0.5 mi SE 3.5 mph - N/A Fog Fog
5:26 AM 59.0 °F - 57.2 °F 94% 30.07 in 0.2 mi SE 3.5 mph - N/A Fog Fog
5:33 AM 59.0 °F - 59.0 °F 100% 30.07 in 0.5 mi SE 3.5 mph - N/A Fog Fog
5:49 AM 59.0 °F - 57.2 °F 94% 30.08 in 1.2 mi Calm Calm - N/A   Overcast
5:53 AM 59.0 °F - 57.9 °F 96% 30.07 in 1.5 mi Calm Calm - N/A   Overcast
6:13 AM 59.0 °F - 57.2 °F 94% 30.08 in 2.5 mi Calm Calm - N/A   Overcast
6:21 AM 59.0 °F - 59.0 °F 100% 30.08 in 4.0 mi Calm Calm - N/A   Overcast
6:34 AM 59.0 °F - 57.2 °F 94% 30.08 in 4.0 mi ESE 3.5 mph - N/A   Overcast
6:53 AM 60.1 °F - 57.9 °F 93% 30.08 in 5.0 mi Calm Calm - N/A   Overcast
7:17 AM 60.8 °F - 59.0 °F 94% 30.09 in 5.0 mi East 3.5 mph - N/A   Mostly Cloudy
7:32 AM 60.8 °F - 57.2 °F 88% 30.09 in 5.0 mi ESE 4.6 mph - N/A   Scattered Clouds
7:42 AM 60.8 °F - 59.0 °F 94% 30.10 in 6.0 mi ESE 4.6 mph - N/A   Mostly Cloudy
7:53 AM 62.1 °F - 59.0 °F 90% 30.10 in 6.0 mi SE 5.8 mph - N/A   Mostly Cloudy
8:14 AM 62.6 °F - 59.0 °F 88% 30.10 in 8.0 mi ESE 8.1 mph - N/A   Overcast
8:53 AM 64.9 °F - 61.0 °F 87% 30.10 in 10.0 mi SE 5.8 mph - N/A   Mostly Cloudy
9:34 AM 69.8 °F - 62.6 °F 78% 30.11 in 10.0 mi SSE 10.4 mph - N/A   Mostly Cloudy
9:53 AM 70.0 °F - 61.0 °F 73% 30.11 in 10.0 mi SSE 16.1 mph - N/A   Mostly Cloudy
10:53 AM 73.9 °F - 61.0 °F 64% 30.11 in 10.0 mi SSE 13.8 mph 18.4 mph 0.01 in   Mostly Cloudy
11:26 AM 75.2 °F - 60.8 °F 61% 30.11 in 10.0 mi South 11.5 mph - N/A   Scattered Clouds
11:53 AM 75.9 °F - 61.0 °F 60% 30.09 in 10.0 mi South 10.4 mph - N/A   Mostly Cloudy
12:53 PM 77.0 °F - 61.0 °F 58% 30.07 in 10.0 mi SSE 10.4 mph - N/A   Scattered Clouds
1:53 PM 80.1 °F 81.1 °F 61.0 °F 52% 30.04 in 10.0 mi SSE 15.0 mph 18.4 mph N/A   Mostly Cloudy
2:53 PM 78.1 °F - 61.0 °F 56% 30.04 in 10.0 mi South 9.2 mph - N/A   Mostly Cloudy
3:53 PM 79.0 °F - 61.0 °F 54% 30.02 in 10.0 mi SSE 12.7 mph - N/A   Scattered Clouds
4:53 PM 79.0 °F - 60.1 °F 52% 30.01 in 10.0 mi SSE 9.2 mph - N/A   Mostly Cloudy
5:53 PM 77.0 °F - 61.0 °F 58% 30.01 in 10.0 mi South 9.2 mph - N/A   Partly Cloudy
6:53 PM 75.0 °F - 62.1 °F 64% 30.01 in 10.0 mi South 10.4 mph - N/A   Clear
7:53 PM 71.1 °F - 62.1 °F 73% 30.02 in 10.0 mi South 8.1 mph - N/A   Clear
8:53 PM 69.1 °F - 62.1 °F 78% 30.04 in 10.0 mi South 9.2 mph - N/A   Clear
9:53 PM 66.9 °F - 62.1 °F 84% 30.06 in 10.0 mi SSE 5.8 mph - N/A   Clear
10:50 PM 66.2 °F - 62.6 °F 88% 30.06 in 10.0 mi SSE 9.2 mph - N/A   Mostly Cloudy
10:53 PM 66.0 °F - 62.1 °F 87% 30.06 in 10.0 mi South 9.2 mph - N/A   Mostly Cloudy
11:53 PM 66.9 °F - 62.1 °F 84% 30.06 in 10.0 mi South 6.9 mph - N/A   Overcast